Home   Weather   Fort Collins   Past weeks

Flag for USA Past Weather in Fort Collins, Colorado, USA — Yesterday and Last 2 Weeks

Now
43 °F

Fog.


Feels Like: 39 °F
Forecast: 37 / 59 °F
Wind: 6 mph from Southwest

Location: Fort Collins-Loveland Municipal Airport

Current Time: Apr 25, 2017 at 2:51:32 am

Latest Report: Apr 25, 2017 at 2:04 am


Visibility: 2 mi

Pressure: 29.59 "Hg (24.56 "Hg at 1522m altitude)

Humidity: 93%

Dew Point: 41 °F

Location of Fort CollinsLocation

Past Weather in Fort Collins — Graph

°F

Fort Collins Temperature Yesterday

Maximum temperature yesterday: 66 °F (at 12:56 pm)
Minimum temperature yesterday: 43 °F (at 11:56 pm)
Average temperature yesterday: 55 °F

High & Low Weather Summary for the Past Weeks

 TemperatureHumidityPressure
High79 °F (Apr 13, 2:56 pm)100% (Apr 14, 4:34 am)30.33 "Hg (Apr 14, 4:34 am)
Low30 °F (Apr 11, 5:56 am)11% (Apr 11, 2:56 pm)29.43 "Hg (Apr 25, 12:56 am)
Average53 °F51%29.92 "Hg
* Reported Apr 10 12:56 am — Apr 25 12:56 am, Fort Collins, Weather by CustomWeather, © 2017

Note: Actual official high and low records may vary slightly from our data, if they occured in-between our weather recording intervals... More about our weather records

Advertising

Fort Collins Weather History for the Previous 24 Hours

Scroll right to see more
 ConditionsComfort  
Time TempWeatherWind HumidityBarometerVisibility
12:56 am
Tue, Apr 25
45 °FLight rain. Passing clouds.13 mph86%29.43 "Hg10 mi
12:15 am43 °FThundershowers. Overcast.12 mph93%29.62 "Hg8 mi
11:56 pm
Mon, Apr 24
43 °FRain. Partly cloudy.16 mph89%29.52 "Hg8 mi
10:56 pm48 °FPassing clouds.7 mph83%29.49 "Hg10 mi
9:56 pm48 °FClear.3 mph83%29.47 "Hg10 mi
8:56 pm46 °FClear.3 mph89%29.49 "Hg10 mi
7:56 pm49 °FClear.7 mph80%29.49 "Hg10 mi
6:56 pm52 °FLight rain. Partly sunny.12 mph72%29.52 "Hg10 mi
5:56 pm59 °FSunny.21 mph44%29.46 "Hg10 mi
4:56 pm59 °FLight rain. Passing clouds.15 mph48%29.47 "Hg10 mi
3:56 pm63 °FPassing clouds.21 mph34%29.45 "Hg10 mi
2:56 pm65 °FPassing clouds.13 mph28%29.46 "Hg10 mi
1:56 pm65 °FSunny.7 mph27%29.48 "Hg10 mi
12:56 pm66 °FSunny.7 mph28%29.50 "Hg10 mi
11:56 am63 °FSunny.No wind29%29.54 "Hg10 mi
10:56 am64 °FSunny.6 mph29%29.56 "Hg10 mi
9:56 am61 °FSunny.8 mph35%29.56 "Hg10 mi
8:56 am57 °FSunny.15 mph46%29.57 "Hg10 mi
7:56 am52 °FSunny.13 mph57%29.57 "Hg10 mi
6:56 am49 °FSunny.8 mph64%29.56 "Hg10 mi
5:56 am49 °FClear.8 mph64%29.54 "Hg10 mi
4:56 am52 °FClear.14 mph57%29.52 "Hg10 mi
3:56 am53 °FPassing clouds.8 mph52%29.52 "Hg10 mi
2:56 am54 °FClear.8 mph49%29.52 "Hg10 mi
Weather by CustomWeather, © 2017

See weather overviewHow to use our weather pages